Rome Ciampino, Italy

8:14 AM CET on March 24, 2017 (GMT +0100)
Ciampino

Weather History for LIRA - October, 2014

Change the Weather History Date:

Saturday, October 18, 2014

  Actual Average Record
Temperature  
Mean Temperature 70 °F -  
Max Temperature 79 °F 65 °F 79 °F (2014)
Min Temperature 62 °F 47 °F 44 °F (2006)
Cooling Degree Days 6    
Growing Degree Days 20 (Base 50)    
Moisture  
Dew Point 62 °F    
Average Humidity 76    
Maximum Humidity 94    
Minimum Humidity 45    
Precipitation  
Precipitation 0.00 in 0.15 in - ()
Sea Level Pressure  
Sea Level Pressure 30.19 in    
Wind  
Wind Speed 1 mph ()    
Max Wind Speed 7 mph    
Max Gust Speed -    
Visibility 6.6 miles    
Events      
Averages and records for this station are not official NWS values.
T = Trace of Precipitation, MM = Missing Value Source: Averaged Metar Reports

Daily Weather History Graph

Daily Weather History Graph

Search for Another Location

Airport or City:

Trip Planner

Search our weather history database for the weather conditions in past years. The results will help you decide how hot, cold, wet, or windy it might be!

Date:

Astronomy

Oct. 18, 2014 Rise Set
Actual Time 7:25 AM CEST 6:24 PM CEST
Civil Twilight 6:57 AM CEST 6:52 PM CEST
Nautical Twilight 6:24 AM CEST 7:24 PM CEST
Astronomical Twilight 5:52 AM CEST 7:56 PM CEST
Moon 2:03 AM CEST (10/18) 3:39 PM CEST (10/18)
Length of Visible Light 11h 55m
Length of Day
10h 58m
Waning Crescent, 26% of the Moon is Illuminated
Oct 18
Waning Crescent
Oct 23
New
Oct 31
First Quarter
Nov 6
Full
Nov 14
Last Quarter

Hourly Weather History & Observations

Time (CEST) Temp. Dew Point Humidity Pressure Visibility Wind Dir Wind Speed Gust Speed Precip Events Conditions
12:15 AM 68.0 °F 59.0 °F 73% 30.15 in 6.2 mi ENE 2.3 mph - N/A   Partly Cloudy
12:45 AM 68.0 °F 59.0 °F 73% 30.15 in 6.2 mi Calm Calm - N/A   Partly Cloudy
1:15 AM 68.0 °F 59.0 °F 73% 30.15 in 6.2 mi Calm Calm - N/A   Partly Cloudy
1:45 AM 68.0 °F 59.0 °F 73% 30.15 in 6.2 mi East 1.2 mph - N/A   Partly Cloudy
2:00 AM 67 °F 60 °F 70% 30.15 in 7 mi East 1.2 mph - -   Scattered Clouds
2:15 AM 66.2 °F 60.8 °F 83% 30.15 in 6.2 mi ESE 1.2 mph - N/A   Partly Cloudy
3:15 AM 66.2 °F 60.8 °F 83% 30.15 in 6.2 mi Calm Calm - N/A   Partly Cloudy
3:45 AM 66.2 °F 60.8 °F 83% 30.15 in 6.2 mi Calm Calm - N/A   Partly Cloudy
4:15 AM 64.4 °F 60.8 °F 88% 30.15 in 6.2 mi Calm Calm - N/A   Partly Cloudy
4:45 AM 62.6 °F 59.0 °F 88% 30.15 in 6.2 mi Calm Calm - N/A   Partly Cloudy
5:00 AM 63 °F 60 °F 85% 30.15 in 7 mi Calm Calm - -   Scattered Clouds
5:15 AM 62.6 °F 59.0 °F 88% 30.15 in 6.2 mi NE 2.3 mph - N/A   Partly Cloudy
5:45 AM 62.6 °F 59.0 °F 88% 30.15 in 6.2 mi Calm Calm - N/A   Partly Cloudy
6:15 AM 62.6 °F 59.0 °F 88% 30.15 in 6.2 mi Calm Calm - N/A   Partly Cloudy
6:45 AM 62.6 °F 59.0 °F 88% 30.15 in 6.2 mi Calm Calm - N/A   Partly Cloudy
7:15 AM 62.6 °F 59.0 °F 88% 30.15 in 6.2 mi Calm Calm - N/A   Scattered Clouds
7:45 AM 62.6 °F 59.0 °F 88% 30.15 in 6.2 mi Calm Calm - N/A   Scattered Clouds
8:00 AM 63 °F 60 °F 85% 30.17 in 7 mi Calm Calm - -   Scattered Clouds
8:15 AM 62.6 °F 60.8 °F 94% 30.15 in 6.2 mi Calm Calm - N/A   Scattered Clouds
8:45 AM 62.6 °F 60.8 °F 94% 30.18 in 6.2 mi WNW 2.3 mph - N/A   Scattered Clouds
9:15 AM 64.4 °F 62.6 °F 94% 30.18 in 6.2 mi WNW 1.2 mph - N/A   Partly Cloudy
9:45 AM 69.8 °F 62.6 °F 78% 30.21 in 6.2 mi Calm Calm - N/A   Partly Cloudy
10:15 AM 69.8 °F 62.6 °F 78% 30.21 in 6.2 mi Calm Calm - N/A   Partly Cloudy
10:45 AM 71.6 °F 62.6 °F 73% 30.21 in 6.2 mi Calm Calm - N/A   Partly Cloudy
11:00 AM 72 °F 63 °F 66% 30.22 in 12 mi Calm Calm - -   Scattered Clouds
11:15 AM 73.4 °F 62.6 °F 69% 30.21 in 6.2 mi North 3.5 mph - N/A   Partly Cloudy
11:45 AM 73.4 °F 62.6 °F 69% 30.21 in 6.2 mi NNE 2.3 mph - N/A   Partly Cloudy
12:15 PM 75.2 °F 60.8 °F 61% 30.21 in 6.2 mi NE 2.3 mph - N/A   Partly Cloudy
12:45 PM - - N/A% 30.21 in 6.2 mi NNW 3.5 mph - N/A   Partly Cloudy
1:15 PM 77.0 °F 59.0 °F 54% 30.21 in 6.2 mi NNE 3.5 mph - N/A   Partly Cloudy
1:45 PM 77.0 °F 59.0 °F 54% 30.21 in 6.2 mi NNE 3.5 mph - N/A   Scattered Clouds
2:00 PM 77 °F 60 °F 45% 30.21 in 12 mi NNE 3.5 mph - -   Partly Cloudy
2:15 PM 77.0 °F 59.0 °F 54% 30.21 in 6.2 mi NW 2.3 mph - N/A   Scattered Clouds
2:45 PM 77.0 °F 59.0 °F 54% 30.18 in 6.2 mi North 3.5 mph - N/A   Scattered Clouds
3:45 PM 78.8 °F 60.8 °F 54% 30.18 in 6.2 mi NW 1.2 mph - N/A   Scattered Clouds
4:15 PM 78.8 °F 59.0 °F 51% 30.18 in 6.2 mi West 3.5 mph - N/A   Scattered Clouds
4:45 PM 77.0 °F 62.6 °F 61% 30.18 in 6.2 mi West 3.5 mph - N/A   Partly Cloudy
5:00 PM 77 °F 62 °F 50% 30.19 in 12 mi West 3.5 mph - -   Scattered Clouds
5:15 PM 77.0 °F 64.4 °F 65% 30.18 in 6.2 mi WSW 6.9 mph - N/A   Partly Cloudy
5:45 PM 75.2 °F 64.4 °F 69% 30.18 in 6.2 mi West 5.8 mph - N/A   Partly Cloudy
6:15 PM 73.4 °F 66.2 °F 78% 30.18 in 6.2 mi WSW 3.5 mph - N/A   Partly Cloudy
6:45 PM 73.4 °F 66.2 °F 78% 30.18 in 6.2 mi SW 2.3 mph - N/A   Partly Cloudy
7:15 PM 71.6 °F 66.2 °F 83% 30.18 in 6.2 mi South 3.5 mph - N/A   Partly Cloudy
7:45 PM 71.6 °F 66.2 °F 83% 30.21 in - South 3.5 mph - N/A   Clear
8:00 PM 71 °F 66 °F 79% 30.22 in 6 mi South 3.5 mph - -  
8:15 PM 69.8 °F 66.2 °F 88% 30.21 in - South 1.2 mph - N/A   Clear
8:45 PM 69.8 °F 64.4 °F 83% 30.21 in - South 2.3 mph - N/A   Clear
9:15 PM 69.8 °F 64.4 °F 83% 30.24 in - South 2.3 mph - N/A   Clear
9:45 PM 68.0 °F 64.4 °F 88% 30.24 in - South 2.3 mph - N/A   Clear
10:15 PM 68.0 °F 64.4 °F 88% 30.24 in - SSE 3.5 mph - N/A   Clear
10:45 PM 68.0 °F 64.4 °F 88% 30.24 in - SSE 2.3 mph - N/A   Clear
11:00 PM 68 °F 64 °F 82% 30.26 in 6 mi SSE 2.3 mph - -  
11:15 PM 68.0 °F 64.4 °F 88% 30.24 in - South 1.2 mph - N/A   Clear
11:45 PM 68.0 °F 64.4 °F 88% 30.24 in - South 1.2 mph - N/A   Clear